Home > Weather > Surrey > Past weeks

Flag for Canada Weather for the Past 2 Weeks in Surrey, British Columbia, Canada

Now
44 °F

Quite cool.


Feels Like: 44 °F
Forecast: 44 / 50 °F
Wind: 1 mph from Northwest

Location: P. Meadows Coastal Station

Current Time: Feb 10, 2016 at 7:26:11 AM

Latest Report: Feb 10, 2016 at 7:00 AM


Visibility: N/A

Pressure: 30.07 "Hg

Humidity: 90%

Dew point: 41 °F

Location of SurreyLocation

Historic Weather in Surrey — Graph

°F

Surrey Temperature Yesterday

Maximum temperature yesterday: 59 °F (at 4:00 PM)
Minimum temperature yesterday: 34 °F (at 6:00 AM)
Average temperature yesterday: 43 °F

High & Low Weather Summary for the Past Weeks

 TemperatureHumidityPressure
High59 °F (Feb 9, 4:00 PM)100% (Jan 27, 2:00 PM)30.62 "Hg (Jan 27, 2:00 PM)
Low33 °F (Jan 30, 2:00 AM)55% (Feb 9, 4:00 PM)29.60 "Hg (Jan 29, 11:00 AM)
Average43 °F90%30.14 "Hg
* Reported Jan 26 6:00 AM — Feb 10 6:00 AM, Surrey, Weather by CustomWeather, © 2016

Note: Actual official high and low records may vary slightly from our data, if they occured in-between our weather recording intervals... More about our weather records

Advertising

Surrey Weather History for the Previous 24 Hours

 ConditionsComfort  
Time TempWeatherWind HumidityBarometerVisibility
6:00 AM
Wed, Feb 10
43 °FQuite cool.1 mph91%30.09 "HgN/A
5:00 AM43 °FQuite cool.2 mph94%30.06 "HgN/A
4:00 AM41 °FQuite cool.3 mph96%30.07 "HgN/A
3:00 AM40 °FQuite cool.1 mph96%30.10 "HgN/A
2:00 AM38 °FChilly.1 mph100%30.11 "HgN/A
1:00 AM39 °FChilly.1 mph97%30.10 "HgN/A
12:00 AM40 °FChilly.No wind95%30.10 "HgN/A
11:00 PM
Tue, Feb 9
40 °FQuite cool.1 mph94%30.10 "HgN/A
10:00 PM42 °FQuite cool.3 mph92%30.10 "HgN/A
9:00 PM42 °FQuite cool.1 mph91%30.10 "HgN/A
8:00 PM45 °FQuite cool.1 mph79%30.11 "HgN/A
7:00 PM46 °FCool.2 mph84%30.11 "HgN/A
6:00 PM50 °FCool.1 mph71%30.12 "HgN/A
5:00 PM53 °FCool.2 mph68%30.11 "HgN/A
4:00 PM59 °FRefreshingly cool.1 mph55%30.12 "HgN/A
3:00 PM58 °FCool.1 mph61%30.12 "HgN/A
2:00 PM57 °FCool.1 mph66%30.13 "HgN/A
1:00 PM53 °FCool.1 mph75%30.15 "HgN/A
12:00 PM50 °FCool.3 mph81%30.19 "HgN/A
11:00 AM44 °FQuite cool.2 mph99%30.21 "HgN/A
10:00 AM39 °FChilly.2 mph99%30.22 "HgN/A
9:00 AM35 °FChilly.No wind100%30.21 "HgN/A
8:00 AM34 °FChilly.1 mph99%30.20 "HgN/A
7:00 AM34 °FChilly.1 mph99%30.20 "HgN/A
Weather by CustomWeather, © 2016

See weather overviewHow to use our weather pages